Chehalis, WA

2:31 PM PDT on July 21, 2017 (GMT -0700)
Chehalis-Centralia

Weather History for KCLS - February, 2013

Change the Weather History Date:

Monday, February 18, 2013

  Actual Average (KTDO) Record (KTDO)
Temperature  
Mean Temperature 40 °F -  
Max Temperature 46 °F 49 °F 66 °F (1977)
Min Temperature 35 °F 35 °F 19 °F (1990)
Degree Days  
Heating Degree Days 24    
Moisture  
Dew Point 36 °F    
Average Humidity 85    
Maximum Humidity 100    
Minimum Humidity 66    
Precipitation  
Precipitation 0.04 in - - ()
Sea Level Pressure  
Sea Level Pressure 29.94 in    
Wind  
Wind Speed 4 mph (South)    
Max Wind Speed 13 mph    
Max Gust Speed 20 mph    
Visibility 5 miles    
Events Fog , Rain    
Averages and records for this station are not official NWS values.
T = Trace of Precipitation, MM = Missing Value Source: NWS Daily Summary

Daily Weather History Graph

Daily Weather History Graph

Search for Another Location

Airport or City:

Trip Planner

Search our weather history database for the weather conditions in past years. The results will help you decide how hot, cold, wet, or windy it might be!

Date:

Astronomy

Feb. 18, 2013 Rise Set
Actual Time 7:10 AM PST 5:42 PM PST
Civil Twilight 6:39 AM PST 6:12 PM PST
Nautical Twilight 6:04 AM PST 6:48 PM PST
Astronomical Twilight 5:29 AM PST 7:23 PM PST
Moon 11:21 AM PST (2/18) 2:05 AM PST (2/18)
Length of Visible Light 11h 33m
Length of Day
10h 31m
First Quarter, 59% of the Moon is Illuminated
Feb 18
First Quarter
Feb 25
Full
Mar 4
Last Quarter
Mar 11
New
Mar 19
First Quarter

Hourly Weather History & Observations

Time (PST) Temp. Windchill Dew Point Humidity Pressure Visibility Wind Dir Wind Speed Gust Speed Precip Events Conditions
12:35 AM 35.6 °F - 35.6 °F 100% 30.11 in 0.5 mi Calm Calm - N/A Fog Fog
12:55 AM 35.6 °F - 35.6 °F 100% 30.11 in 2.0 mi Calm Calm - N/A   Overcast
1:15 AM 35.6 °F - 35.6 °F 100% 30.10 in 1.0 mi Calm Calm - N/A   Overcast
1:35 AM 35.6 °F - 35.6 °F 100% 30.10 in 1.0 mi Calm Calm - N/A   Overcast
1:55 AM 35.6 °F - 35.6 °F 100% 30.09 in 5.0 mi Calm Calm - N/A   Overcast
2:15 AM 35.6 °F - 35.6 °F 100% 30.09 in 1.0 mi Calm Calm - N/A   Overcast
2:35 AM 35.6 °F - 35.6 °F 100% 30.08 in 1.2 mi Calm Calm - N/A   Overcast
2:55 AM 35.6 °F - 35.6 °F 100% 30.07 in 1.5 mi Calm Calm - N/A   Overcast
3:35 AM 35.6 °F - 35.6 °F 100% 30.06 in 0.8 mi Calm Calm - N/A   Overcast
3:55 AM 35.6 °F - 35.6 °F 100% 30.05 in 0.8 mi Calm Calm - N/A   Overcast
4:15 AM 35.6 °F - 35.6 °F 100% 30.04 in 0.8 mi Calm Calm - N/A   Overcast
4:35 AM 35.6 °F - 35.6 °F 100% 30.04 in 0.5 mi Calm Calm - N/A Fog Fog
4:55 AM 35.6 °F - 35.6 °F 100% 30.03 in 0.5 mi Calm Calm - N/A Fog Fog
5:15 AM 35.6 °F - 35.6 °F 100% 30.04 in 0.8 mi Calm Calm - N/A   Overcast
5:35 AM 35.6 °F - 35.6 °F 100% 30.03 in 0.8 mi Calm Calm - N/A   Overcast
5:55 AM 35.6 °F - 35.6 °F 100% 30.03 in 0.5 mi Calm Calm - N/A Fog Fog
6:15 AM 35.6 °F - 35.6 °F 100% 30.02 in 0.5 mi Calm Calm - N/A Fog Fog
6:35 AM 35.6 °F - 35.6 °F 100% 30.02 in 0.8 mi Calm Calm - N/A   Overcast
6:55 AM 35.6 °F - 35.6 °F 100% 30.02 in 0.2 mi Calm Calm - N/A Fog Fog
7:15 AM 35.6 °F 32.8 °F 35.6 °F 100% 30.02 in 0.5 mi SSW 3.5 mph - N/A Fog Fog
7:35 AM 35.6 °F 32.8 °F 35.6 °F 100% 30.02 in 0.2 mi South 3.5 mph - N/A Fog Fog
8:15 AM 35.6 °F 31.7 °F 35.6 °F 100% 30.01 in 0.5 mi SSE 4.6 mph - N/A Fog Fog
8:35 AM 35.6 °F 31.7 °F 35.6 °F 100% 30.01 in 4.0 mi South 4.6 mph - N/A   Overcast
8:55 AM 35.6 °F 29.9 °F 35.6 °F 100% 30.01 in 8.0 mi South 6.9 mph - N/A   Overcast
9:15 AM 35.6 °F 30.7 °F 35.6 °F 100% 30.01 in 5.0 mi SSW 5.8 mph - N/A   Overcast
9:35 AM 37.4 °F 32.8 °F 35.6 °F 93% 30.01 in 10.0 mi South 5.8 mph - N/A   Overcast
9:55 AM 37.4 °F 34.9 °F 37.4 °F 100% 30.00 in 10.0 mi South 3.5 mph - N/A   Overcast
10:15 AM 39.2 °F 35.0 °F 37.4 °F 93% 30.00 in 6.0 mi South 5.8 mph - N/A   Overcast
10:35 AM 39.2 °F 35.0 °F 37.4 °F 93% 29.99 in 8.0 mi South 5.8 mph - N/A   Overcast
10:55 AM 39.2 °F 34.2 °F 37.4 °F 93% 29.98 in 3.0 mi SSE 6.9 mph - N/A   Mostly Cloudy
11:15 AM 41.0 °F 36.4 °F 37.4 °F 87% 29.98 in 4.0 mi South 6.9 mph - N/A   Mostly Cloudy
11:35 AM 41.0 °F 35.2 °F 37.4 °F 87% 29.98 in 7.0 mi SSE 9.2 mph - N/A   Overcast
11:55 AM 42.8 °F 38.0 °F 37.4 °F 81% 29.97 in 5.0 mi South 8.1 mph - N/A   Haze
12:15 PM 44.6 °F 40.7 °F 37.4 °F 76% 29.96 in 10.0 mi SSW 6.9 mph - N/A   Mostly Cloudy
12:35 PM 44.6 °F 39.2 °F 37.4 °F 76% 29.96 in 10.0 mi South 10.4 mph - N/A   Scattered Clouds
12:55 PM 44.6 °F 39.7 °F 37.4 °F 76% 29.95 in 5.0 mi South 9.2 mph - N/A   Haze
1:15 PM 44.6 °F 38.8 °F 35.6 °F 71% 29.94 in 5.0 mi South 11.5 mph - N/A   Haze
1:35 PM 46.4 °F 40.7 °F 35.6 °F 66% 29.94 in 6.0 mi SSW 12.7 mph 17.3 mph N/A   Haze
1:55 PM 46.4 °F 41.5 °F 35.6 °F 66% 29.93 in 6.0 mi South 10.4 mph - N/A   Haze
2:15 PM 46.4 °F 41.5 °F 35.6 °F 66% 29.92 in 5.0 mi SSE 10.4 mph 16.1 mph N/A   Haze
2:35 PM 46.4 °F 41.1 °F 35.6 °F 66% 29.91 in 5.0 mi South 11.5 mph - N/A   Haze
2:55 PM 46.4 °F 41.5 °F 35.6 °F 66% 29.91 in 5.0 mi South 10.4 mph - N/A   Haze
3:15 PM 46.4 °F 40.7 °F 35.6 °F 66% 29.90 in 5.0 mi South 12.7 mph 18.4 mph N/A   Haze
3:35 PM 46.4 °F 41.1 °F 35.6 °F 66% 29.89 in 5.0 mi South 11.5 mph 19.6 mph N/A   Haze
3:55 PM 46.4 °F 41.9 °F 35.6 °F 66% 29.89 in 5.0 mi South 9.2 mph - N/A   Haze
4:15 PM 44.6 °F 39.7 °F 33.8 °F 66% 29.88 in 7.0 mi South 9.2 mph - N/A   Overcast
4:35 PM 44.6 °F 39.2 °F 33.8 °F 66% 29.87 in 10.0 mi South 10.4 mph - N/A   Overcast
4:55 PM 44.6 °F 40.2 °F 33.8 °F 66% 29.86 in 5.0 mi SSW 8.1 mph - N/A   Haze
5:15 PM 44.6 °F 39.2 °F 33.8 °F 66% 29.86 in 5.0 mi South 10.4 mph - N/A   Haze
5:35 PM 44.6 °F 40.2 °F 33.8 °F 66% 29.85 in 5.0 mi South 8.1 mph - N/A   Haze
5:55 PM 44.6 °F 40.7 °F 33.8 °F 66% 29.84 in 5.0 mi South 6.9 mph - N/A   Haze
6:15 PM 44.6 °F 39.2 °F 33.8 °F 66% 29.83 in 7.0 mi South 10.4 mph 16.1 mph N/A   Overcast
6:35 PM 44.6 °F 40.2 °F 33.8 °F 66% 29.83 in 7.0 mi South 8.1 mph - N/A   Overcast
6:55 PM 44.6 °F 39.7 °F 33.8 °F 66% 29.82 in 7.0 mi South 9.2 mph - N/A   Overcast
7:15 PM 42.8 °F 38.6 °F 33.8 °F 70% 29.82 in 7.0 mi SSE 6.9 mph - N/A   Overcast
7:55 PM 42.8 °F 37.0 °F 33.8 °F 70% 29.81 in 7.0 mi South 10.4 mph - N/A   Overcast
8:15 PM 42.8 °F 38.0 °F 33.8 °F 70% 29.80 in 9.0 mi South 8.1 mph - N/A   Overcast
8:35 PM 42.8 °F 37.0 °F 33.8 °F 70% 29.80 in 10.0 mi South 10.4 mph - N/A   Mostly Cloudy
8:55 PM 42.8 °F 37.5 °F 33.8 °F 70% 29.80 in 10.0 mi South 9.2 mph - N/A   Overcast
9:15 PM 42.8 °F 37.0 °F 35.6 °F 76% 29.80 in 10.0 mi South 10.4 mph 17.3 mph N/A   Overcast
9:35 PM 41.0 °F 35.2 °F 35.6 °F 81% 29.79 in 9.0 mi South 9.2 mph - N/A Rain Light Rain
9:55 PM 41.0 °F 36.4 °F 37.4 °F 87% 29.79 in 10.0 mi South 6.9 mph - N/A Rain Light Rain
10:15 PM 41.0 °F 37.1 °F 37.4 °F 87% 29.78 in 9.0 mi South 5.8 mph - 0.01 in Rain Light Rain
10:35 PM 41.0 °F 38.0 °F 37.4 °F 87% 29.78 in 9.0 mi South 4.6 mph - 0.01 in   Overcast
10:55 PM 41.0 °F 38.0 °F 37.4 °F 87% 29.77 in 10.0 mi South 4.6 mph - 0.02 in   Overcast
11:15 PM 41.0 °F 38.0 °F 37.4 °F 87% 29.77 in 9.0 mi SSW 4.6 mph - 0.01 in Rain Light Rain
11:35 PM 41.0 °F 35.8 °F 37.4 °F 87% 29.77 in 10.0 mi South 8.1 mph - 0.02 in Rain Light Rain
11:55 PM 41.0 °F 37.1 °F 37.4 °F 87% 29.76 in 10.0 mi South 5.8 mph - 0.02 in   Overcast